[[{"header":{"parameterUnit":"m.s-1","parameterCategory":2,"la1":30.2991,"la2":30.254,"lo1":-89.0895,"lo2":-89.0444,"dy":0.0017,"dx":0.0017,"nx":28,"ny":28,"refTime":"2025-03-31T21:00:00:Z","depth":"0","parameterNumber":2,"parameterNumberName":"U-component_of_CURRENTS"},"data":[0,0,0,0,0,0,0,0,0,0,0,0,0,0,0,0,0,0,0,0,0,0,0,0,0,0,0,0,0,0,0,0,0,0,0,0,0,0,0,0,0,0,0,0,0,0,0,0,0,0,0,0,0,0,0,0,0,0,0.1841,0.1842,0,0.187,0.187,0.187,0.1868,0.1868,0.1868,0.1868,0.1855,0.1855,0.1855,0,0,0,0,0,0,0,0,0,0,0,0,0,0.1783,0.1784,0.1841,0.1842,0.1842,0.187,0.187,0.187,0.1868,0.1868,0.1868,0.1868,0.1855,0.1855,0.1855,0,0,0,0,0,0,0,0,0,0,0,0,0,0.1807,0.1784,0.1841,0.1847,0.1847,0.187,0.187,0.187,0.1868,0.1868,0.1868,0.1867,0.1855,0.1855,0.1855,0.186,0,0,0.1854,0.1854,0,0,0,0,0,0,0,0,0.1806,0.1809,0.1845,0.1846,0.1847,0.1867,0.1845,0.1865,0.1868,0.1858,0.1868,0.1867,0.1857,0.1857,0.186,0.1859,0.1858,0.1854,0.1854,0.1854,0.1854,0,0,0,0,0,0,0,0.1804,0.1808,0.185,0.1846,0.1847,0.1847,0.185,0.1849,0.1856,0.1859,0.1859,0.1866,0.1857,0.186,0.186,0.1858,0.1854,0.1854,0.1854,0.1854,0.1885,0.1885,0,0,0,0,0,0,0.1806,0.1806,0.1849,0.1851,0.1828,0.1848,0.1851,0.1859,0.1857,0.1858,0.1867,0.1866,0.1861,0.186,0.1859,0.1887,0.1854,0.1854,0.1854,0.1884,0.1885,0.1886,0,0,0,0,0,0,0.1805,0.1809,0.1848,0.1831,0.1836,0.185,0.1858,0.186,0.1866,0.1864,0.1863,0.1872,0.1861,0.186,0.1866,0.1886,0.1854,0.1854,0.1882,0.1884,0.1885,0.1928,0,0,0,0,0,0,0.1803,0.1809,0.1814,0.1831,0.1837,0.1867,0.1859,0.1861,0.1872,0.1871,0.1868,0.1866,0.186,0.1867,0.1866,0.1885,0.1853,0.1881,0.1883,0.1885,0.1926,0.1931,0.1935,0,0,0,0,0,0.1801,0.1809,0.1814,0.1819,0.1844,0.1868,0.1871,0.1877,0.1872,0.188,0.1878,0.1867,0.1878,0.1867,0.1866,0.1885,0.188,0.1883,0.1885,0.1923,0.193,0.1935,0,0,0,0,0,0,0.178,0.181,0.1816,0.1831,0.1851,0.1868,0.1876,0.188,0.1886,0.1883,0.1876,0.1875,0.1889,0.1881,0.187,0.19,0.1878,0.188,0.1908,0.1914,0.1919,0.1925,0.1853,0,0,0,0,0,0.178,0.1796,0.1823,0.1834,0.1846,0.1861,0.1871,0.1878,0.1887,0.1889,0.1888,0.1889,0.1898,0.19,0.1903,0.1916,0.1931,0.1929,0.1934,0.1938,0.1944,0.199,0.2,0.1893,0.1893,0.1893,0,0,0.1771,0.1793,0.1799,0.1832,0.1846,0.1868,0.1866,0.1884,0.1902,0.1886,0.1903,0.1904,0.1905,0.1924,0.193,0.1919,0.1979,0.1941,0.1945,0.1948,0.1993,0.2004,0.2013,0.1894,0.1894,0.1894,0,0,0.1771,0.1787,0.1803,0.1825,0.1857,0.1871,0.1878,0.1901,0.191,0.1928,0.1926,0.1941,0.1945,0.1959,0.1964,0.1997,0.2003,0.1997,0.2028,0.2073,0.2082,0.209,0.2132,0.2144,0.2,0.2,0.2,0,0.1758,0.1786,0.181,0.1836,0.1853,0.1874,0.1894,0.1913,0.1933,0.1949,0.1937,0.1969,0.1965,0.2003,0.2015,0.2009,0.2035,0.2004,0.208,0.2089,0.2096,0.2137,0.2149,0.2002,0.2002,0.2002,0.2002,0,0.1775,0.1797,0.1809,0.1851,0.1873,0.1893,0.1927,0.1948,0.1959,0.1979,0.2015,0.2019,0.2041,0.2045,0.2037,0.2094,0.2095,0.2082,0.2066,0.211,0.215,0.2162,0.2006,0.2005,0.2004,0.2004,0,0,0.1739,0.1807,0.1809,0.1833,0.1882,0.1901,0.194,0.1983,0.2012,0.2035,0.2075,0.2095,0.2105,0.2112,0.2114,0.2148,0.2223,0.214,0.2141,0.2183,0.233,0.2321,0.2333,0.2227,0.2229,0.2231,0.2338,0,0.174,0.179,0.1823,0.1861,0.1887,0.1926,0.1963,0.2007,0.2038,0.2082,0.211,0.2142,0.213,0.2143,0.2181,0.2212,0.2256,0.2195,0.2279,0.2281,0.227,0.2347,0.2317,0.2409,0.235,0.2352,0.2354,0,0.1739,0.1777,0.1815,0.1878,0.1892,0.1917,0.198,0.2016,0.2089,0.2118,0.2166,0.2189,0.2251,0.2224,0.2322,0.2287,0.2315,0.2335,0.2339,0.2324,0.2296,0.2354,0.2434,0.2421,0.2372,0.2371,0.2369,0,0.1702,0.1765,0.1795,0.1815,0.189,0.1913,0.1951,0.2022,0.2058,0.2141,0.2178,0.2254,0.2292,0.2349,0.2393,0.2368,0.2495,0.2465,0.2487,0.2486,0.2472,0.2467,0.255,0.2537,0.2537,0.2537,0.2536,0,0.1689,0.1707,0.1779,0.1795,0.1827,0.1892,0.193,0.1985,0.2066,0.2112,0.219,0.2243,0.2325,0.24,0.2432,0.2511,0.2536,0.2516,0.2523,0.2486,0.2481,0.2476,0.2443,0.2541,0.254,0.2539,0.2538,0,0.1635,0.1684,0.1713,0.1788,0.1807,0.1826,0.1899,0.1936,0.2026,0.2091,0.2121,0.2254,0.2366,0.2444,0.2545,0.2561,0.2577,0.264,0.259,0.259,0.2582,0.2552,0.2501,0.2411,0.2695,0.2696,0.2696,0,0.1612,0.1625,0.1683,0.1696,0.1723,0.1764,0.1796,0.1892,0.1936,0.2089,0.2121,0.2263,0.236,0.2531,0.26,0.2694,0.26,0.2692,0.2632,0.2604,0.2577,0.2434,0.2351,0.2638,0.2638,0.2638,0.2638,0,0.1563,0.1578,0.1606,0.1633,0.1659,0.1685,0.1742,0.1774,0.1895,0.1978,0.2105,0.2204,0.24,0.2513,0.2644,0.2682,0.2589,0.2693,0.2687,0.2566,0.2395,0.2304,0.254,0.2637,0.2637,0.2637,0.2637,0.2637,0.1512,0.1512,0.1549,0.1564,0.1592,0.1611,0.1613,0.1694,0.1767,0.1882,0.2027,0.2167,0.2407,0.2608,0.2625,0.2687,0.2588,0.266,0.2638,0.2505,0.2378,0.261,0.2693,0.2693,0.2693,0.2694,0.2694,0,0.145,0.1464,0.1483,0.15,0.1499,0.1535,0.1579,0.1585,0.1643,0.1796,0.1914,0.2192,0.2373,0.2537,0.2718,0.2671,0.2507,0.2615,0.2432,0.2357,0.2621,0.2581,0.2616,0.2616,0.2616,0.2616,0.2616,0.2616,0.1421,0.1413,0.1424,0.1403,0.1414,0.1389,0.1395,0.1426,0.1518,0.1676,0.1833,0.2001,0.2372,0.2702,0.2772,0.269,0.2466,0.2382,0.2308,0.2557,0.2559,0.2561,0.2519,0.2539,0.2539,0.1963,0.1959,0.1956]},{"header":{"parameterUnit":"m.s-1","parameterCategory":2,"la1":30.2991,"la2":30.254,"lo1":-89.0895,"lo2":-89.0444,"dy":0.0017,"dx":0.0017,"nx":28,"ny":28,"refTime":"2025-03-31T21:00:00:Z","depth":"0","parameterNumber":3,"parameterNumberName":"V-component_of_CURRENTS"},"data":[0,0,0,0,0,0,0,0,0,0,0,0,0,0,0,0,0,0,0,0,0,0,0,0,0,0,0,0,0,0,0,0,0,0,0,0,0,0,0,0,0,0,0,0,0,0,0,0,0,0,0,0,0,0,0,0,0,0,-0.0172,-0.0173,0,-0.0241,-0.0242,-0.0243,-0.0286,-0.0286,-0.0286,-0.0286,-0.038,-0.0382,-0.0384,0,0,0,0,0,0,0,0,0,0,0,0,0,-0.012,-0.012,-0.0172,-0.0173,-0.0173,-0.0241,-0.0242,-0.0243,-0.0286,-0.0286,-0.0286,-0.0286,-0.0379,-0.0382,-0.0384,0,0,0,0,0,0,0,0,0,0,0,0,0,-0.0161,-0.012,-0.0172,-0.0203,-0.0206,-0.0241,-0.0242,-0.0243,-0.0286,-0.0286,-0.0286,-0.0286,-0.0378,-0.0381,-0.0385,-0.0401,0,0,-0.0395,-0.0397,0,0,0,0,0,0,0,0,-0.0159,-0.0163,-0.0197,-0.02,-0.0204,-0.0255,-0.0258,-0.0297,-0.0286,-0.0256,-0.0286,-0.0287,-0.0339,-0.0346,-0.0359,-0.0405,-0.0409,-0.0396,-0.0398,-0.0399,-0.04,0,0,0,0,0,0,0,-0.0156,-0.0161,-0.02,-0.0198,-0.0202,-0.0228,-0.0233,-0.0266,-0.0296,-0.0259,-0.0262,-0.0268,-0.0342,-0.0356,-0.0362,-0.0411,-0.0396,-0.0399,-0.0401,-0.0402,-0.0474,-0.0474,0,0,0,0,0,0,-0.0144,-0.0158,-0.0198,-0.0202,-0.0181,-0.0228,-0.0235,-0.0239,-0.0296,-0.0304,-0.0268,-0.027,-0.0349,-0.0357,-0.0365,-0.0384,-0.0399,-0.0403,-0.0405,-0.0474,-0.0474,-0.0474,0,0,0,0,0,0,-0.0142,-0.0146,-0.0195,-0.0181,-0.0189,-0.0228,-0.0233,-0.024,-0.0254,-0.0302,-0.0312,-0.0274,-0.035,-0.036,-0.0391,-0.0388,-0.0404,-0.0407,-0.0474,-0.0474,-0.0474,-0.0424,0,0,0,0,0,0,-0.014,-0.0145,-0.0143,-0.018,-0.0189,-0.0209,-0.0233,-0.0241,-0.0257,-0.0261,-0.0311,-0.032,-0.0351,-0.0385,-0.0394,-0.0393,-0.041,-0.0474,-0.0474,-0.0474,-0.0426,-0.0422,-0.0419,0,0,0,0,0,-0.0138,-0.0132,-0.0143,-0.0148,-0.0185,-0.0209,-0.0216,-0.0246,-0.0257,-0.026,-0.0294,-0.0318,-0.0389,-0.0388,-0.0398,-0.0398,-0.0475,-0.0474,-0.0474,-0.0428,-0.0423,-0.0419,0,0,0,0,0,0,-0.0105,-0.0137,-0.0149,-0.0152,-0.0176,-0.0216,-0.022,-0.0241,-0.0271,-0.0273,-0.0319,-0.033,-0.0356,-0.0383,-0.038,-0.0417,-0.0435,-0.0437,-0.0396,-0.0392,-0.0389,-0.0372,-0.0413,0,0,0,0,0,-0.0097,-0.0102,-0.0135,-0.0136,-0.0146,-0.0182,-0.0195,-0.0215,-0.0246,-0.0259,-0.0294,-0.033,-0.0363,-0.0381,-0.0413,-0.0434,-0.0453,-0.044,-0.0436,-0.0433,-0.0427,-0.046,-0.0459,-0.0472,-0.0472,-0.0472,0,0,-0.0084,-0.0101,-0.0104,-0.013,-0.015,-0.0158,-0.019,-0.0204,-0.0212,-0.0264,-0.0283,-0.032,-0.0365,-0.0389,-0.0403,-0.0412,-0.0436,-0.0433,-0.043,-0.0425,-0.046,-0.0459,-0.0458,-0.0472,-0.0472,-0.0472,0,0,-0.0058,-0.0075,-0.007,-0.0088,-0.0114,-0.0136,-0.0137,-0.0174,-0.019,-0.0214,-0.0253,-0.0285,-0.0335,-0.0366,-0.0389,-0.0385,-0.0416,-0.0396,-0.0367,-0.0399,-0.0399,-0.0398,-0.0403,-0.0403,-0.0394,-0.0394,-0.0394,0,-0.004,-0.004,-0.0072,-0.0073,-0.008,-0.0122,-0.0117,-0.0141,-0.0183,-0.0193,-0.0211,-0.0282,-0.0322,-0.0354,-0.0355,-0.0377,-0.0392,-0.0379,-0.0394,-0.0394,-0.0395,-0.04,-0.0401,-0.0392,-0.0392,-0.0392,-0.0392,0,-0.0014,-0.0015,-0.0012,-0.0026,-0.0039,-0.004,-0.0075,-0.0088,-0.0113,-0.0142,-0.0175,-0.0232,-0.0272,-0.0294,-0.0326,-0.0349,-0.0356,-0.0385,-0.0403,-0.039,-0.0397,-0.0399,-0.0388,-0.0389,-0.039,-0.039,0,0,0.0031,0.0011,0.0013,0.0018,-0.0013,-0.0016,-0.0026,-0.0046,-0.0044,-0.0096,-0.01,-0.0171,-0.0203,-0.0231,-0.0278,-0.0312,-0.0329,-0.0347,-0.035,-0.0345,-0.0381,-0.0377,-0.0379,-0.0364,-0.0365,-0.0365,-0.0378,0,0.0064,0.0078,0.0056,0.0074,0.008,0.0045,0.0043,0.0018,-0.001,-0.0024,-0.0091,-0.0116,-0.018,-0.0194,-0.0241,-0.0305,-0.0335,-0.0321,-0.0398,-0.04,-0.0394,-0.0382,-0.0366,-0.0376,-0.038,-0.038,-0.038,0,0.0098,0.0104,0.0127,0.013,0.0131,0.0134,0.0132,0.0124,0.0086,0.0063,0.0017,-0.0031,-0.0087,-0.0141,-0.0245,-0.0234,-0.03,-0.0354,-0.0356,-0.0372,-0.04,-0.0394,-0.038,-0.0512,-0.0384,-0.0384,-0.0383,0,0.0149,0.0155,0.0179,0.0178,0.0172,0.0181,0.0177,0.0152,0.016,0.012,0.0124,0.004,0.0017,-0.0091,-0.0201,-0.0224,-0.0304,-0.0351,-0.0407,-0.0407,-0.0418,-0.0418,-0.0537,-0.0422,-0.0422,-0.0422,-0.0422,0,0.0191,0.0212,0.0207,0.022,0.0257,0.0232,0.0263,0.0247,0.024,0.0261,0.0174,0.0182,0.0027,-0.0038,-0.0162,-0.0275,-0.0275,-0.0392,-0.0413,-0.0398,-0.0396,-0.0531,-0.0622,-0.0422,-0.0422,-0.0422,-0.0422,0,0.0239,0.0235,0.0265,0.0272,0.0281,0.0304,0.0325,0.0349,0.0331,0.0359,0.0355,0.0298,0.0215,0.0069,-0.0082,-0.0203,-0.0408,-0.0368,-0.0323,-0.0338,-0.0527,-0.0615,-0.077,-0.0849,-0.0436,-0.0436,-0.0436,0,0.0263,0.0283,0.0308,0.0333,0.0338,0.0368,0.0395,0.0391,0.0422,0.0436,0.0464,0.041,0.0386,0.018,-0.0039,-0.0234,-0.0393,-0.0358,-0.0414,-0.0527,-0.0641,-0.0717,-0.0779,-0.0402,-0.0401,-0.0401,-0.0401,0,0.0311,0.0318,0.0342,0.0392,0.0428,0.0468,0.0508,0.0551,0.0559,0.0598,0.0648,0.0641,0.0454,0.0284,0.0016,-0.0146,-0.0468,-0.036,-0.0502,-0.0642,-0.0709,-0.0797,-0.0387,-0.0399,-0.0399,-0.04,-0.04,-0.04,0.0349,0.0373,0.0406,0.0456,0.05,0.0564,0.0611,0.067,0.0746,0.0823,0.0803,0.0836,0.0575,0.0219,-0.0025,-0.0431,-0.0467,-0.0557,-0.0654,-0.072,-0.0805,-0.0374,-0.04,-0.04,-0.04,-0.04,-0.04,0,0.0394,0.0421,0.0468,0.0528,0.0585,0.0598,0.0686,0.0746,0.0855,0.095,0.1005,0.0941,0.0584,0.0207,-0.0326,-0.0643,-0.0804,-0.0831,-0.0948,-0.1,-0.0627,-0.0634,-0.0681,-0.0681,-0.0681,-0.0681,-0.0681,-0.0681,0.042,0.0471,0.0492,0.059,0.0635,0.0721,0.0778,0.088,0.0972,0.1123,0.1198,0.1235,0.1006,-0.0037,-0.0741,-0.093,-0.1198,-0.1252,-0.1388,-0.1139,-0.1122,-0.1105,-0.1132,-0.1283,-0.1284,-0.1716,-0.172,-0.1724]}],[{"header":{"parameterUnit":"m.s-1","parameterCategory":2,"la1":30.2991,"la2":30.254,"lo1":-89.0895,"lo2":-89.0444,"dy":0.0017,"dx":0.0017,"nx":28,"ny":28,"refTime":"2025-03-31T21:00:00:Z","depth":"2","parameterNumber":2,"parameterNumberName":"U-component_of_CURRENTS"},"data":[0,0,0,0,0,0,0,0,0,0,0,0,0,0,0,0,0,0,0,0,0,0,0,0,0,0,0,0,0,0,0,0,0,0,0,0,0,0,0,0,0,0,0,0,0,0,0,0,0,0,0,0,0,0,0,0,0,0,0.1891,0.1891,0,0.192,0.192,0.192,0.1919,0.1918,0.1918,0.1918,0.1908,0.1908,0.1908,0,0,0,0,0,0,0,0,0,0,0,0,0,0.1832,0.1833,0.1891,0.1891,0.1892,0.192,0.192,0.192,0.1919,0.1918,0.1918,0.1918,0.1908,0.1908,0.1908,0,0,0,0,0,0,0,0,0,0,0,0,0,0.1857,0.1833,0.1891,0.1896,0.1897,0.192,0.192,0.192,0.1919,0.1918,0.1918,0.1918,0.1908,0.1908,0.1908,0.1913,0,0,0.1907,0.1907,0,0,0,0,0,0,0,0,0.1855,0.1858,0.1895,0.1896,0.1897,0.1918,0.1896,0.1917,0.1919,0.1908,0.1918,0.1918,0.1909,0.1909,0.1912,0.1913,0.1912,0.1907,0.1907,0.1907,0.1907,0,0,0,0,0,0,0,0.1853,0.1857,0.19,0.1896,0.1897,0.1897,0.19,0.19,0.1907,0.1909,0.1909,0.1917,0.1909,0.1912,0.1912,0.1912,0.1907,0.1907,0.1907,0.1907,0.1939,0.194,0,0,0,0,0,0,0.1855,0.1856,0.1899,0.1901,0.1878,0.1899,0.1902,0.1909,0.1908,0.1909,0.1917,0.1917,0.1913,0.1912,0.1912,0.194,0.1907,0.1907,0.1907,0.1939,0.194,0.1941,0,0,0,0,0,0,0.1854,0.1859,0.1898,0.1881,0.1886,0.19,0.1909,0.191,0.1916,0.1915,0.1914,0.1922,0.1913,0.1912,0.1919,0.1939,0.1907,0.1907,0.1937,0.1939,0.194,0.1983,0,0,0,0,0,0,0.1852,0.1858,0.1864,0.1881,0.1887,0.1917,0.1909,0.1911,0.1922,0.1922,0.1919,0.1918,0.1912,0.192,0.1919,0.1938,0.1907,0.1936,0.1938,0.194,0.198,0.1986,0.199,0,0,0,0,0,0.185,0.1858,0.1864,0.1869,0.1894,0.1918,0.1921,0.1928,0.1923,0.1931,0.1929,0.1918,0.1931,0.192,0.1919,0.1939,0.1935,0.1938,0.194,0.1978,0.1985,0.199,0,0,0,0,0,0,0.1829,0.186,0.1866,0.1881,0.1902,0.1919,0.1927,0.1931,0.1937,0.1934,0.1927,0.1927,0.1942,0.1934,0.1923,0.1954,0.1932,0.1934,0.1962,0.1968,0.1973,0.1979,0.1907,0,0,0,0,0,0.183,0.1846,0.1873,0.1885,0.1896,0.1912,0.1921,0.1929,0.1938,0.194,0.1939,0.1941,0.195,0.1953,0.1956,0.1971,0.1985,0.1984,0.1989,0.1993,0.1998,0.2044,0.2054,0.1948,0.1948,0.1948,0,0,0.1821,0.1844,0.185,0.1882,0.1896,0.1918,0.1916,0.1935,0.1953,0.1938,0.1954,0.1956,0.1958,0.1977,0.1983,0.1973,0.2032,0.1996,0.1999,0.2002,0.2048,0.2058,0.2068,0.1949,0.1949,0.1949,0,0,0.1821,0.1837,0.1853,0.1876,0.1907,0.1921,0.1929,0.1951,0.1961,0.1979,0.1978,0.1993,0.1998,0.2012,0.2018,0.2051,0.2056,0.2051,0.2082,0.2127,0.2136,0.2145,0.2183,0.2194,0.2054,0.2054,0.2054,0,0.1808,0.1836,0.186,0.1886,0.1903,0.1924,0.1944,0.1964,0.1984,0.2,0.1988,0.2021,0.2018,0.2057,0.2068,0.2063,0.2088,0.2059,0.2134,0.2143,0.2151,0.2188,0.22,0.2057,0.2056,0.2056,0.2056,0,0.1825,0.1848,0.1859,0.19,0.1923,0.1943,0.1977,0.1999,0.2009,0.203,0.2067,0.2072,0.2094,0.2098,0.2091,0.2148,0.2148,0.2136,0.212,0.2164,0.22,0.2212,0.206,0.2059,0.2059,0.2058,0,0,0.1788,0.1857,0.1859,0.1882,0.1931,0.195,0.199,0.2033,0.2062,0.2086,0.2126,0.2148,0.2157,0.2165,0.2167,0.2202,0.2275,0.2194,0.2195,0.2233,0.238,0.2358,0.2369,0.2281,0.2283,0.2285,0.2385,0,0.1789,0.1838,0.1872,0.191,0.1935,0.1974,0.2011,0.2055,0.2087,0.2131,0.2162,0.2194,0.2183,0.2195,0.2235,0.2265,0.2307,0.2249,0.2329,0.2332,0.2309,0.2382,0.2188,0.2259,0.2396,0.2398,0.2399,0,0.1788,0.1826,0.1863,0.1926,0.1939,0.1964,0.2026,0.2063,0.2137,0.2166,0.2215,0.2238,0.2301,0.2275,0.2372,0.2339,0.2365,0.2385,0.2389,0.2361,0.2332,0.2236,0.2275,0.2419,0.2417,0.2416,0.2415,0,0.1749,0.1813,0.1841,0.1862,0.1937,0.1959,0.1997,0.2068,0.2104,0.2188,0.2223,0.2301,0.2338,0.2396,0.2438,0.2416,0.2537,0.2511,0.252,0.2519,0.2365,0.2346,0.2583,0.2583,0.2582,0.2582,0.2582,0,0.1735,0.1753,0.1825,0.184,0.1872,0.1937,0.1974,0.2029,0.211,0.2156,0.2234,0.2286,0.2371,0.2441,0.2474,0.2543,0.2574,0.2547,0.2553,0.2375,0.2357,0.2495,0.2483,0.2586,0.2585,0.2584,0.2584,0,0.168,0.173,0.1758,0.1833,0.1851,0.1869,0.1942,0.1979,0.2069,0.2132,0.2162,0.2293,0.2398,0.2475,0.2574,0.2587,0.2649,0.2657,0.2442,0.2422,0.2593,0.2582,0.2698,0.2698,0.2698,0.2699,0.2699,0,0.1657,0.167,0.1727,0.1741,0.1767,0.1807,0.1839,0.1936,0.1979,0.2127,0.2158,0.2292,0.2381,0.2539,0.2582,0.2663,0.2675,0.2515,0.244,0.2616,0.261,0.2599,0.2588,0.2253,0.225,0.2247,0.2245,0,0.1608,0.1623,0.165,0.1677,0.1702,0.1729,0.1785,0.1816,0.1936,0.2013,0.2133,0.2224,0.2384,0.2401,0.2507,0.2515,0.2491,0.2462,0.2711,0.2257,0.2206,0.2197,0.2199,0.2219,0.2222,0.2224,0.2225,0.2226,0.1558,0.1558,0.1594,0.1608,0.1636,0.1654,0.1657,0.1733,0.1801,0.1897,0.2033,0.2114,0.2205,0.229,0.2265,0.2249,0.2422,0.2318,0.2323,0.2332,0.2266,0.2218,0.2221,0.2224,0.2226,0.2228,0.2229,0,0.1495,0.151,0.1528,0.1546,0.1545,0.1581,0.1623,0.1624,0.1673,0.1781,0.1873,0.1826,0.1878,0.1952,0.1915,0.1969,0.1902,0.1875,0.1761,0.1791,0.1816,0.1718,0.1531,0.1529,0.1526,0.1524,0,0,0.1466,0.1458,0.1469,0.1449,0.146,0.1438,0.1443,0.1464,0.1522,0.156,0.1592,0.1759,0.1899,0.167,0.1682,0.1593,0.1657,0.1528,0.2098,0.1992,0.2013,0.21,0.1988,0,0,0,0,0]},{"header":{"parameterUnit":"m.s-1","parameterCategory":2,"la1":30.2991,"la2":30.254,"lo1":-89.0895,"lo2":-89.0444,"dy":0.0017,"dx":0.0017,"nx":28,"ny":28,"refTime":"2025-03-31T21:00:00:Z","depth":"2","parameterNumber":3,"parameterNumberName":"V-component_of_CURRENTS"},"data":[0,0,0,0,0,0,0,0,0,0,0,0,0,0,0,0,0,0,0,0,0,0,0,0,0,0,0,0,0,0,0,0,0,0,0,0,0,0,0,0,0,0,0,0,0,0,0,0,0,0,0,0,0,0,0,0,0,0,-0.0212,-0.0213,0,-0.0281,-0.0282,-0.0283,-0.0325,-0.0325,-0.0326,-0.0326,-0.0419,-0.0421,-0.0424,0,0,0,0,0,0,0,0,0,0,0,0,0,-0.016,-0.016,-0.0212,-0.0213,-0.0214,-0.0281,-0.0282,-0.0283,-0.0325,-0.0326,-0.0326,-0.0326,-0.0418,-0.0421,-0.0424,0,0,0,0,0,0,0,0,0,0,0,0,0,-0.0202,-0.0161,-0.0212,-0.0242,-0.0246,-0.0281,-0.0282,-0.0283,-0.0325,-0.0326,-0.0326,-0.0326,-0.0418,-0.0421,-0.0424,-0.0441,0,0,-0.0435,-0.0437,0,0,0,0,0,0,0,0,-0.0199,-0.0203,-0.0237,-0.024,-0.0244,-0.0294,-0.0298,-0.0337,-0.0325,-0.0296,-0.0326,-0.0326,-0.0379,-0.0386,-0.0399,-0.0446,-0.045,-0.0435,-0.0438,-0.0439,-0.044,0,0,0,0,0,0,0,-0.0196,-0.0201,-0.024,-0.0238,-0.0242,-0.0267,-0.0273,-0.0306,-0.0336,-0.0298,-0.0301,-0.0308,-0.0381,-0.0395,-0.0401,-0.0451,-0.0435,-0.0438,-0.0441,-0.0442,-0.0513,-0.0513,0,0,0,0,0,0,-0.0184,-0.0198,-0.0238,-0.0242,-0.0221,-0.0268,-0.0275,-0.0279,-0.0335,-0.0344,-0.0308,-0.031,-0.0389,-0.0397,-0.0405,-0.0423,-0.0439,-0.0442,-0.0444,-0.0514,-0.0513,-0.0513,0,0,0,0,0,0,-0.0182,-0.0187,-0.0235,-0.0221,-0.0229,-0.0268,-0.0273,-0.028,-0.0293,-0.0342,-0.0351,-0.0314,-0.039,-0.04,-0.043,-0.0427,-0.0444,-0.0447,-0.0514,-0.0514,-0.0513,-0.0462,0,0,0,0,0,0,-0.018,-0.0186,-0.0184,-0.022,-0.023,-0.025,-0.0273,-0.0281,-0.0297,-0.03,-0.035,-0.0359,-0.0391,-0.0425,-0.0434,-0.0432,-0.045,-0.0514,-0.0514,-0.0513,-0.0464,-0.046,-0.0457,0,0,0,0,0,-0.0178,-0.0172,-0.0183,-0.0188,-0.0225,-0.0249,-0.0256,-0.0286,-0.0297,-0.0299,-0.0333,-0.0358,-0.0429,-0.0427,-0.0438,-0.0437,-0.0514,-0.0514,-0.0513,-0.0466,-0.0461,-0.0457,0,0,0,0,0,0,-0.0145,-0.0177,-0.0189,-0.0192,-0.0216,-0.0256,-0.026,-0.0281,-0.031,-0.0312,-0.0359,-0.037,-0.0395,-0.0422,-0.042,-0.0456,-0.0474,-0.0476,-0.0434,-0.043,-0.0427,-0.041,-0.0453,0,0,0,0,0,-0.0137,-0.0142,-0.0176,-0.0177,-0.0186,-0.0222,-0.0235,-0.0254,-0.0285,-0.0298,-0.0333,-0.0369,-0.0402,-0.042,-0.0452,-0.0473,-0.0492,-0.0478,-0.0475,-0.0471,-0.0465,-0.0498,-0.0497,-0.0512,-0.0512,-0.0512,0,0,-0.0124,-0.0142,-0.0144,-0.017,-0.019,-0.0198,-0.023,-0.0244,-0.0251,-0.0304,-0.0321,-0.0358,-0.0404,-0.0428,-0.0441,-0.045,-0.0474,-0.0471,-0.0467,-0.0463,-0.0497,-0.0496,-0.0495,-0.0511,-0.0511,-0.0512,0,0,-0.0098,-0.0115,-0.0111,-0.0128,-0.0154,-0.0176,-0.0177,-0.0213,-0.023,-0.0253,-0.0292,-0.0323,-0.0372,-0.0403,-0.0426,-0.0421,-0.0453,-0.0432,-0.0402,-0.0435,-0.0433,-0.0433,-0.0438,-0.0438,-0.043,-0.043,-0.043,0,-0.008,-0.0081,-0.0113,-0.0113,-0.0121,-0.0162,-0.0156,-0.018,-0.0222,-0.0231,-0.025,-0.0319,-0.036,-0.039,-0.0391,-0.0413,-0.0428,-0.0415,-0.0429,-0.0429,-0.0429,-0.0435,-0.0436,-0.0428,-0.0428,-0.0428,-0.0429,0,-0.0055,-0.0055,-0.0053,-0.0067,-0.0079,-0.0081,-0.0115,-0.0127,-0.0151,-0.018,-0.0212,-0.0269,-0.0308,-0.0329,-0.0362,-0.0383,-0.0391,-0.042,-0.0438,-0.0425,-0.0432,-0.0433,-0.0424,-0.0425,-0.0426,-0.0427,0,0,-0.0011,-0.003,-0.0028,-0.0023,-0.0053,-0.0057,-0.0065,-0.0085,-0.0082,-0.0133,-0.0137,-0.0206,-0.0238,-0.0265,-0.0312,-0.0345,-0.0361,-0.038,-0.0383,-0.0379,-0.0413,-0.0411,-0.0413,-0.0396,-0.0396,-0.0397,-0.041,0,0.0021,0.0035,0.0014,0.0032,0.0038,0.0004,0.0003,-0.0021,-0.0048,-0.0062,-0.0127,-0.0152,-0.0214,-0.0228,-0.0274,-0.0338,-0.0366,-0.0353,-0.0431,-0.0433,-0.0429,-0.0416,-0.0402,-0.0413,-0.0413,-0.0413,-0.0413,0,0.0055,0.006,0.0083,0.0087,0.0089,0.0092,0.0091,0.0084,0.0047,0.0024,-0.002,-0.0067,-0.0122,-0.0175,-0.0277,-0.0266,-0.0332,-0.0385,-0.0388,-0.0406,-0.0435,-0.0431,-0.0417,-0.0417,-0.0417,-0.0416,-0.0416,0,0.0104,0.0111,0.0135,0.0134,0.0129,0.0138,0.0136,0.0111,0.0119,0.0081,0.0085,0.0003,-0.002,-0.0125,-0.0235,-0.0257,-0.0338,-0.0383,-0.0441,-0.0441,-0.0453,-0.0453,-0.0452,-0.0452,-0.0452,-0.0452,-0.0452,0,0.0146,0.0167,0.0162,0.0176,0.0212,0.0189,0.022,0.0205,0.0198,0.0218,0.0134,0.014,-0.0011,-0.0076,-0.0197,-0.0311,-0.0309,-0.0426,-0.0447,-0.0433,-0.0431,-0.0461,-0.0462,-0.0453,-0.0453,-0.0453,-0.0452,0,0.0192,0.0189,0.0219,0.0227,0.0235,0.0259,0.0279,0.0303,0.0286,0.0313,0.0309,0.0251,0.0167,0.0025,-0.0124,-0.0242,-0.0364,-0.0406,-0.0362,-0.0379,-0.0453,-0.0451,-0.0474,-0.0474,-0.0474,-0.0474,-0.0474,0,0.0216,0.0236,0.0261,0.0285,0.0291,0.032,0.0347,0.0344,0.0373,0.0384,0.041,0.0355,0.0325,0.012,-0.0094,-0.0284,-0.0328,-0.0401,-0.0454,-0.0438,-0.0457,-0.0455,-0.0453,-0.0442,-0.0442,-0.0442,-0.0442,0,0.0262,0.0269,0.0294,0.0342,0.0377,0.0416,0.0454,0.0496,0.0503,0.0537,0.0579,0.0567,0.0381,0.0198,-0.0063,-0.0208,-0.0374,-0.0404,-0.0402,-0.0439,-0.0411,-0.0428,-0.0427,-0.0441,-0.0441,-0.0441,-0.0441,-0.0441,0.0299,0.0323,0.0355,0.0403,0.0447,0.0507,0.0552,0.06,0.0668,0.0715,0.0704,0.0679,0.0476,0.0144,-0.0082,-0.0341,-0.0347,-0.0452,-0.0452,-0.0452,-0.0446,-0.042,-0.0448,-0.0449,-0.0449,-0.0449,-0.0449,0,0.0338,0.0368,0.0414,0.0471,0.0522,0.054,0.0624,0.0659,0.0747,0.0788,0.0817,0.0629,0.0436,0.0194,-0.018,-0.0395,-0.0428,-0.0469,-0.0462,-0.0462,-0.0462,-0.0457,-0.0462,-0.0462,-0.0463,-0.0463,0,0,0.0361,0.0408,0.0428,0.0519,0.0568,0.0639,0.0692,0.0749,0.0786,0.0822,0.0814,0.0784,0.0505,0.0241,-0.0047,-0.0256,-0.0317,-0.0305,-0.0275,-0.0234,-0.0231,-0.0434,-0.0423,0,0,0,0,0]}],[{"header":{"parameterUnit":"m.s-1","parameterCategory":2,"la1":30.2991,"la2":30.254,"lo1":-89.0895,"lo2":-89.0444,"dy":0.0017,"dx":0.0017,"nx":28,"ny":28,"refTime":"2025-03-31T21:00:00:Z","depth":"4","parameterNumber":2,"parameterNumberName":"U-component_of_CURRENTS"},"data":[0,0,0,0,0,0,0,0,0,0,0,0,0,0,0,0,0,0,0,0,0,0,0,0,0,0,0,0,0,0,0,0,0,0,0,0,0,0,0,0,0,0,0,0,0,0,0,0,0,0,0,0,0,0,0,0,0,0,0.1164,0.1164,0,0.1211,0.1211,0.1212,0.1254,0.1254,0.1255,0.1256,0.1317,0.1318,0.1319,0,0,0,0,0,0,0,0,0,0,0,0,0,0.1101,0.1102,0.1164,0.1164,0.1165,0.1211,0.1211,0.1212,0.1254,0.1254,0.1255,0.1256,0.1316,0.1317,0.1319,0,0,0,0,0,0,0,0,0,0,0,0,0,0.1135,0.1102,0.1164,0.1192,0.1196,0.121,0.1211,0.1212,0.1254,0.1254,0.1255,0.1256,0.1316,0.1317,0.1319,0.131,0,0,0.1324,0.1324,0,0,0,0,0,0,0,0,0.1133,0.1137,0.1187,0.119,0.1194,0.1228,0.1211,0.1246,0.1253,0.123,0.1256,0.1257,0.1288,0.1292,0.1297,0.1313,0.1316,0.1324,0.1325,0.1326,0.1326,0,0,0,0,0,0,0,0.1131,0.1135,0.1181,0.1188,0.1192,0.12,0.1206,0.1218,0.1253,0.1232,0.1236,0.1243,0.129,0.1296,0.1299,0.1317,0.1324,0.1325,0.1326,0.1327,0.142,0.1421,0,0,0,0,0,0,0.1127,0.1133,0.118,0.1183,0.1166,0.12,0.1207,0.1215,0.1253,0.1259,0.1242,0.1244,0.1292,0.1297,0.1301,0.1374,0.1326,0.1327,0.1328,0.1418,0.142,0.1422,0,0,0,0,0,0,0.1125,0.1131,0.1178,0.116,0.1166,0.1201,0.121,0.1216,0.1248,0.126,0.1267,0.1271,0.1293,0.1299,0.1341,0.1374,0.1328,0.1329,0.1416,0.1419,0.1421,0.1468,0,0,0,0,0,0,0.1123,0.113,0.1147,0.1159,0.1167,0.1205,0.1209,0.1216,0.125,0.1254,0.1287,0.1292,0.1295,0.1339,0.1343,0.1375,0.133,0.1414,0.1417,0.142,0.1465,0.1472,0.1478,0,0,0,0,0,0.1121,0.1136,0.1147,0.1153,0.1186,0.1206,0.1212,0.1237,0.1251,0.1269,0.1296,0.1292,0.136,0.1341,0.1345,0.1379,0.1413,0.1416,0.142,0.1462,0.1471,0.1478,0,0,0,0,0,0,0.1121,0.1143,0.1155,0.1178,0.12,0.1214,0.1237,0.1251,0.1285,0.1299,0.1308,0.1315,0.1364,0.1365,0.1344,0.1415,0.1387,0.1392,0.1418,0.1426,0.1433,0.1423,0.1332,0,0,0,0,0,0.1127,0.1147,0.1166,0.1188,0.1201,0.1223,0.124,0.1258,0.1283,0.13,0.1323,0.135,0.1376,0.1397,0.1415,0.1452,0.1455,0.1478,0.1485,0.149,0.1487,0.1518,0.1527,0.1433,0.1433,0.1433,0,0,0.1132,0.1149,0.1161,0.119,0.1211,0.1232,0.1237,0.127,0.1296,0.13,0.1352,0.1373,0.139,0.1434,0.1456,0.1444,0.1524,0.1495,0.1499,0.1492,0.1522,0.1531,0.1539,0.1435,0.1435,0.1434,0,0,0.1145,0.1171,0.1189,0.1209,0.1245,0.1257,0.1272,0.1303,0.133,0.1372,0.1387,0.1427,0.1466,0.1487,0.15,0.1553,0.1555,0.1569,0.1599,0.163,0.1637,0.1644,0.1678,0.1687,0.1575,0.1576,0.1576,0,0.1154,0.1177,0.1198,0.1221,0.1243,0.127,0.1295,0.1321,0.1365,0.1391,0.1398,0.1471,0.1487,0.1538,0.1561,0.1567,0.1587,0.1566,0.1638,0.1644,0.165,0.1683,0.1693,0.1578,0.1578,0.1578,0.1577,0,0.1171,0.1201,0.1215,0.1251,0.1278,0.1307,0.1339,0.1377,0.1411,0.1436,0.1502,0.1528,0.1572,0.159,0.1592,0.1651,0.1654,0.1639,0.1614,0.1662,0.1694,0.1704,0.1582,0.1581,0.158,0.158,0,0,0.116,0.1216,0.1224,0.1249,0.1299,0.132,0.1369,0.1416,0.1455,0.1504,0.1556,0.1606,0.163,0.1646,0.1665,0.1693,0.1759,0.1691,0.1691,0.1719,0.1841,0.1745,0.1745,0.1763,0.1764,0.1765,0.1852,0,0.117,0.1212,0.1241,0.1289,0.1313,0.1358,0.14,0.145,0.1496,0.1552,0.1596,0.1651,0.165,0.1686,0.1715,0.1748,0.1783,0.1737,0.1794,0.1796,0.1699,0.1752,0.177,0.1859,0.1861,0.1863,0.1864,0,0.1172,0.1203,0.1248,0.1312,0.1328,0.1365,0.1439,0.1481,0.1558,0.1598,0.1659,0.1695,0.1762,0.1746,0.1826,0.1803,0.1827,0.1844,0.1847,0.1741,0.1715,0.1797,0.188,0.1879,0.1877,0.1876,0.1875,0,0.1143,0.1207,0.1245,0.1267,0.134,0.138,0.1426,0.1501,0.1547,0.1636,0.1683,0.1754,0.1811,0.1846,0.1894,0.1871,0.1973,0.194,0.1878,0.1873,0.1911,0.1903,0.1991,0.1991,0.1991,0.1991,0.199,0,0.1128,0.1161,0.124,0.1261,0.1316,0.1376,0.1441,0.1496,0.1583,0.1636,0.1712,0.1763,0.1841,0.1907,0.1924,0.1937,0.2004,0.1889,0.1887,0.1932,0.1925,0.1919,0.1909,0.1994,0.1993,0.1993,0.1992,0,0.1084,0.1135,0.1184,0.1271,0.1303,0.1344,0.1446,0.1487,0.1581,0.1654,0.1691,0.1802,0.1878,0.1948,0.202,0.1974,0.1993,0.1983,0.2051,0.205,0.1864,0.1856,0.1904,0.1902,0.1899,0.1898,0.1896,0,0.1061,0.1083,0.118,0.1212,0.1256,0.1327,0.1372,0.1474,0.1515,0.1658,0.1683,0.1807,0.1866,0.1898,0.1969,0.2008,0.1985,0.1984,0.189,0.1861,0.1855,0.1851,0.1846,0.1892,0.1892,0.1891,0.189,0,0.1018,0.1063,0.1104,0.1169,0.1225,0.1275,0.1348,0.1371,0.1482,0.1583,0.1637,0.1688,0.1778,0.1831,0.1891,0.1906,0.197,0.1959,0.1963,0.1874,0.1847,0.1843,0.1841,0.1883,0.1884,0.1884,0.1885,0,0.0989,0.1006,0.1067,0.1115,0.118,0.1205,0.125,0.1301,0.1357,0.1502,0.1519,0.1647,0.1754,0.1782,0.183,0.1848,0.1807,0.1735,0.1749,0.1759,0.1671,0.1613,0.158,0,0,0,0,0,0.0952,0.0964,0.1007,0.1053,0.1113,0.115,0.1227,0.1272,0.1375,0.1375,0.1441,0.1512,0.1584,0.1655,0.1645,0.1776,0.1821,0.1756,0.1747,0.1838,0.1848,0.1757,0,0,0,0,0,0,0.0927,0.0966,0.0982,0.0992,0.1011,0.1064,0.1108,0.1177,0.1179,0.1291,0.1338,0.1427,0.1523,0.1579,0.1618,0.1641,0.1606,0.1838,0.1835,0.1833,0.1842,0.1849,0.1759,0,0,0,0,0]},{"header":{"parameterUnit":"m.s-1","parameterCategory":2,"la1":30.2991,"la2":30.254,"lo1":-89.0895,"lo2":-89.0444,"dy":0.0017,"dx":0.0017,"nx":28,"ny":28,"refTime":"2025-03-31T21:00:00:Z","depth":"4","parameterNumber":3,"parameterNumberName":"V-component_of_CURRENTS"},"data":[0,0,0,0,0,0,0,0,0,0,0,0,0,0,0,0,0,0,0,0,0,0,0,0,0,0,0,0,0,0,0,0,0,0,0,0,0,0,0,0,0,0,0,0,0,0,0,0,0,0,0,0,0,0,0,0,0,0,-0.0094,-0.0094,0,-0.0136,-0.0137,-0.0137,-0.017,-0.017,-0.0171,-0.0171,-0.0248,-0.025,-0.0252,0,0,0,0,0,0,0,0,0,0,0,0,0,-0.0063,-0.0063,-0.0093,-0.0094,-0.0094,-0.0136,-0.0137,-0.0137,-0.017,-0.017,-0.0171,-0.0171,-0.0248,-0.025,-0.0252,0,0,0,0,0,0,0,0,0,0,0,0,0,-0.0088,-0.0063,-0.0093,-0.0116,-0.0118,-0.0136,-0.0137,-0.0137,-0.017,-0.017,-0.0171,-0.0171,-0.0247,-0.025,-0.0252,-0.026,0,0,-0.0261,-0.0262,0,0,0,0,0,0,0,0,-0.0087,-0.0089,-0.0112,-0.0114,-0.0117,-0.0148,-0.0154,-0.018,-0.017,-0.0151,-0.0171,-0.0171,-0.0218,-0.0223,-0.023,-0.0264,-0.0267,-0.0261,-0.0262,-0.0264,-0.0264,0,0,0,0,0,0,0,-0.0085,-0.0088,-0.0111,-0.0112,-0.0115,-0.0131,-0.0135,-0.0159,-0.0182,-0.0152,-0.0155,-0.0159,-0.0219,-0.0227,-0.0232,-0.0268,-0.0261,-0.0263,-0.0265,-0.0266,-0.0323,-0.0323,0,0,0,0,0,0,-0.0077,-0.0086,-0.0109,-0.0112,-0.0102,-0.0131,-0.0136,-0.0138,-0.0181,-0.0188,-0.0158,-0.016,-0.0222,-0.0229,-0.0235,-0.0247,-0.0264,-0.0266,-0.0268,-0.0323,-0.0323,-0.0323,0,0,0,0,0,0,-0.0076,-0.0079,-0.0108,-0.01,-0.0105,-0.0131,-0.0133,-0.0138,-0.0151,-0.0185,-0.0193,-0.0166,-0.0223,-0.0231,-0.0256,-0.025,-0.0267,-0.027,-0.0323,-0.0323,-0.0323,-0.0272,0,0,0,0,0,0,-0.0075,-0.0078,-0.0078,-0.0099,-0.0105,-0.0117,-0.0133,-0.0139,-0.0152,-0.0155,-0.0194,-0.0202,-0.0224,-0.0252,-0.0259,-0.0254,-0.0272,-0.0323,-0.0323,-0.0323,-0.0274,-0.027,-0.0267,0,0,0,0,0,-0.0074,-0.0071,-0.0078,-0.0081,-0.0103,-0.0116,-0.0121,-0.0141,-0.0152,-0.0155,-0.0181,-0.0201,-0.0256,-0.0254,-0.0262,-0.0258,-0.0323,-0.0323,-0.0323,-0.0275,-0.0271,-0.0267,0,0,0,0,0,0,-0.0059,-0.0075,-0.0083,-0.0085,-0.0099,-0.0122,-0.0126,-0.0141,-0.0163,-0.0167,-0.0201,-0.021,-0.023,-0.0252,-0.0249,-0.0275,-0.0292,-0.0294,-0.0253,-0.025,-0.0246,-0.0227,-0.0274,0,0,0,0,0,-0.0054,-0.0056,-0.0074,-0.0077,-0.0082,-0.0104,-0.0113,-0.0126,-0.0147,-0.0158,-0.0184,-0.0212,-0.0234,-0.0248,-0.0272,-0.0287,-0.0307,-0.029,-0.0286,-0.0283,-0.0274,-0.0296,-0.0293,-0.0322,-0.0322,-0.0322,0,0,-0.0049,-0.0058,-0.006,-0.0073,-0.0086,-0.0086,-0.011,-0.0121,-0.0121,-0.0163,-0.0174,-0.0203,-0.0236,-0.025,-0.0261,-0.0269,-0.0288,-0.0283,-0.028,-0.0272,-0.0295,-0.0293,-0.029,-0.0322,-0.0322,-0.0322,0,0,-0.0037,-0.0047,-0.0043,-0.0051,-0.0066,-0.0076,-0.0078,-0.01,-0.011,-0.0125,-0.0153,-0.0174,-0.0213,-0.0228,-0.0243,-0.0236,-0.027,-0.0249,-0.0216,-0.0237,-0.0235,-0.0233,-0.0262,-0.0263,-0.0246,-0.0246,-0.0246,0,-0.0031,-0.0027,-0.0044,-0.0041,-0.0043,-0.0069,-0.0062,-0.0073,-0.01,-0.0105,-0.0123,-0.0169,-0.0198,-0.0208,-0.0206,-0.0226,-0.0249,-0.0227,-0.0232,-0.023,-0.0229,-0.0259,-0.0261,-0.0244,-0.0244,-0.0244,-0.0245,0,-0.0014,-0.0011,-0.0009,-0.001,-0.0014,-0.0014,-0.0027,-0.0033,-0.005,-0.0064,-0.0082,-0.012,-0.0146,-0.0159,-0.0181,-0.0186,-0.0209,-0.0225,-0.0238,-0.0223,-0.0256,-0.0259,-0.024,-0.0241,-0.0242,-0.0243,0,0,-0.0001,0.0003,0.0004,0.0013,0.0003,0.0004,0.0009,0.0005,0.0009,-0.002,-0.0019,-0.0055,-0.008,-0.0097,-0.0129,-0.0144,-0.0161,-0.0177,-0.018,-0.0199,-0.0217,-0.0217,-0.022,-0.0179,-0.0179,-0.0179,-0.0245,0,0.0017,0.0036,0.0031,0.0052,0.0061,0.0048,0.0057,0.005,0.0035,0.0028,-0.0005,-0.0021,-0.0055,-0.0069,-0.0089,-0.0144,-0.0165,-0.0142,-0.0235,-0.0237,-0.0233,-0.0222,-0.0179,-0.0248,-0.0248,-0.0249,-0.0249,0,0.0036,0.0047,0.007,0.0089,0.0092,0.01,0.0111,0.0114,0.01,0.0086,0.0065,0.0033,0.0005,-0.0026,-0.0101,-0.0087,-0.0145,-0.0186,-0.019,-0.0206,-0.0242,-0.0267,-0.0255,-0.0254,-0.0254,-0.0253,-0.0253,0,0.0056,0.0076,0.0097,0.0102,0.0116,0.0127,0.0134,0.013,0.0142,0.0121,0.0119,0.0075,0.0053,-0.0015,-0.0101,-0.0105,-0.0186,-0.0207,-0.026,-0.0262,-0.0265,-0.0266,-0.0255,-0.0255,-0.0255,-0.0254,-0.0254,0,0.0077,0.0095,0.0109,0.0121,0.0152,0.0152,0.0177,0.0177,0.0181,0.0198,0.015,0.015,0.0056,-0.0001,-0.0086,-0.0179,-0.018,-0.0248,-0.0273,-0.0244,-0.0242,-0.0268,-0.0268,-0.0257,-0.0256,-0.0256,-0.0256,0,0.0093,0.0102,0.0129,0.0151,0.0162,0.0182,0.0212,0.0231,0.0227,0.0247,0.0245,0.0204,0.013,0.0031,-0.0083,-0.0155,-0.0248,-0.0283,-0.0245,-0.0268,-0.0316,-0.0313,-0.0348,-0.0348,-0.0348,-0.0349,-0.0349,0,0.0102,0.0117,0.015,0.0171,0.0181,0.021,0.0236,0.025,0.0272,0.0283,0.0297,0.0244,0.0199,0.0047,-0.007,-0.0232,-0.0255,-0.0314,-0.0309,-0.0302,-0.0323,-0.032,-0.0317,-0.0349,-0.035,-0.035,-0.035,0,0.0118,0.0127,0.015,0.019,0.0221,0.0259,0.0294,0.0319,0.034,0.0341,0.0348,0.0275,0.0192,0.0065,-0.0061,-0.0179,-0.028,-0.0318,-0.0318,-0.0315,-0.0305,-0.0325,-0.0321,-0.0351,-0.0351,-0.0351,-0.0351,0,0.0127,0.0142,0.0171,0.0207,0.0251,0.0295,0.0314,0.0347,0.0373,0.039,0.0392,0.0306,0.0258,0.0092,-0.0024,-0.0138,-0.0172,-0.0217,-0.0223,-0.0223,-0.0168,-0.0136,-0.0144,0,0,0,0,0,0.0133,0.015,0.0186,0.0227,0.0272,0.0296,0.035,0.0366,0.0392,0.0409,0.0406,0.0333,0.0181,0.0115,0.0003,-0.0053,-0.021,-0.0192,-0.027,-0.0358,-0.0357,-0.0313,0,0,0,0,0,0,0.0136,0.0166,0.0183,0.0237,0.0267,0.0318,0.0354,0.0376,0.0385,0.0399,0.0326,0.0294,0.0146,0.0248,-0.0002,-0.0038,-0.0106,-0.0262,-0.0265,-0.0359,-0.0357,-0.0356,-0.0311,0,0,0,0,0]}]]